Volver al catálogo

SINOD-D 3

ActivoCienciaLEO
NORAD 40977·PAYLOAD·🇺🇸 United States

Lanzado Oct 8, 2015 desde Vandenberg Space Force Base

Loading…

Próximos Pases (próximas 24 horas)

TLE

ActualizadoSource: Space-Track

Época: Sep 14, 2026, 06:01 UTC

1 40977U 15058P   26257.25131723  .00001855  00000-0  16055-3 0  9991
2 40977  64.7742 357.5662 0126618  24.2562 336.4440 14.94561996128063

Sigue SINOD-D 3 en tiempo real con AllMySat

Download on the App Store